Location: Napier
(39.4830°S, 176.9170°E)
Time: 02:26:03
(UTC+12:00)

CZ-2C R/B - Pass Details

Date: 15 August 2020
Orbit: 784 x 870 km, 98.3° (Epoch: 19 September)

Event Time Altitude Azimuth Distance (km) Brightness Sun altitude
Rises 18:39:55 0° 30° (NNE) 3,372 5.6 -13.2°
Reaches altitude 10° 18:42:18 10° 35° (NE) 2,459 4.8 -13.6°
Maximum altitude 18:47:34 50° 109° (ESE) 1,092 2.9 -14.6°
Drops below altitude 10° 18:52:59 10° 182° (S) 2,534 5.2 -15.7°
Sets 18:55:28 0° 187° (S) 3,486 5.9 -16.2°
